Location: *
(2.5500°S, 65.9667°W)
Time: 16:07:51
(UTC+00:00)

Cosmos 2084 - Pass Details

Date: 25 May 2022
Orbit: 506 x 671 km, 62.8° (Epoch: 03 July)

Event Time Altitude Azimuth Distance (km) Brightness Sun altitude
Exits shadow 09:28:38 - 192° (SSW) 2,389 6.3 -13.1°
Reaches altitude 10° 09:30:04 10° 187° (S) 1,830 5.7 -12.8°
Maximum altitude 09:33:59 44° 115° (ESE) 744 4.3 -11.8°
Drops below altitude 10° 09:37:43 10° 42° (NE) 1,745 7.0 -11.0°
Sets 09:39:54 0° 35° (NE) 2,613 7.8 -10.5°
